Time,TemperatureF,DewpointF,PressureIn,WindDirection,WindDirectionDegrees,WindSpeedMPH,WindSpeedGustMPH,Humidity,HourlyPrecipIn,Conditions,Clouds,dailyrainin,SoftwareType,DateUTC
2013-08-28 00:00:00,61.0,51.9,29.69,East,101,0.0,5.0,72,0.00,,---,0.00,VWS V14.01,2013-08-28 07:00:00,
2013-08-28 00:04:00,62.6,52.3,29.69,East,101,0.0,0.0,69,0.00,,---,0.00,VWS V14.01,2013-08-28 07:04:00,
2013-08-28 00:09:00,62.7,52.8,29.69,East,101,0.0,0.0,70,0.00,,---,0.00,VWS V14.01,2013-08-28 07:09:00,
2013-08-28 00:14:00,62.1,51.8,29.69,East,101,0.0,0.0,69,0.00,,---,0.00,VWS V14.01,2013-08-28 07:14:00,
2013-08-28 00:15:00,62.0,51.7,29.69,East,101,0.0,0.0,69,0.00,,---,0.00,VWS V14.01,2013-08-28 07:15:00,
2013-08-28 00:19:00,61.1,51.6,29.70,East,101,0.0,0.0,71,0.00,,---,0.00,VWS V14.01,2013-08-28 07:19:00,
2013-08-28 00:24:00,59.4,50.8,29.70,East,101,0.0,0.0,73,0.00,,---,0.00,VWS V14.01,2013-08-28 07:24:00,
2013-08-28 00:29:00,60.1,51.4,29.70,East,100,0.0,0.0,73,0.00,,---,0.00,VWS V14.01,2013-08-28 07:29:00,
2013-08-28 00:30:00,60.1,51.4,29.70,East,100,0.0,0.0,73,0.00,,---,0.00,VWS V14.01,2013-08-28 07:30:00,
2013-08-28 00:34:00,60.4,51.3,29.70,East,100,0.0,0.0,72,0.00,,---,0.00,VWS V14.01,2013-08-28 07:34:00,
2013-08-28 00:39:00,60.9,51.1,29.70,East,101,0.0,0.0,70,0.00,,---,0.00,VWS V14.01,2013-08-28 07:39:00,
2013-08-28 00:44:00,61.3,51.1,29.70,East,79,0.0,0.0,69,0.00,,---,0.00,VWS V14.01,2013-08-28 07:44:00,
2013-08-28 00:45:00,61.3,51.1,29.70,East,79,0.0,0.0,69,0.00,,---,0.00,VWS V14.01,2013-08-28 07:45:00,
2013-08-28 00:49:00,60.7,50.9,29.70,ENE,73,0.0,0.0,70,0.00,,---,0.00,VWS V14.01,2013-08-28 07:49:00,
2013-08-28 00:54:00,59.5,50.5,29.70,ENE,66,4.0,5.0,72,0.00,,---,0.00,VWS V14.01,2013-08-28 07:54:00,
2013-08-28 00:59:00,59.0,50.0,29.70,ENE,66,3.0,5.0,72,0.00,,---,0.00,VWS V14.01,2013-08-28 07:59:00,
2013-08-28 01:00:00,59.0,50.4,29.70,ENE,65,5.0,5.0,73,0.00,,---,0.00,VWS V14.01,2013-08-28 08:00:00,
2013-08-28 01:04:00,59.8,51.9,29.70,ENE,66,3.0,5.0,75,0.00,,---,0.00,VWS V14.01,2013-08-28 08:04:00,
2013-08-28 01:09:00,59.0,50.0,29.70,ENE,65,0.0,5.0,72,0.00,,---,0.00,VWS V14.01,2013-08-28 08:09:00,
2013-08-28 01:14:00,58.5,51.3,29.70,ENE,65,0.0,5.0,77,0.00,,---,0.00,VWS V14.01,2013-08-28 08:14:00,
2013-08-28 01:15:00,58.5,51.3,29.70,ENE,66,0.0,5.0,77,0.00,,---,0.00,VWS V14.01,2013-08-28 08:15:00,
2013-08-28 01:19:00,59.0,51.5,29.71,ENE,58,3.0,4.0,76,0.00,,---,0.00,VWS V14.01,2013-08-28 08:19:00,
2013-08-28 01:24:00,58.6,50.3,29.71,ENE,58,0.0,4.0,74,0.00,,---,0.00,VWS V14.01,2013-08-28 08:24:00,
2013-08-28 01:29:00,57.9,50.4,29.71,ENE,58,0.0,4.0,76,0.00,,---,0.00,VWS V14.01,2013-08-28 08:29:00,
2013-08-28 01:30:00,57.8,50.3,29.71,ENE,57,0.0,4.0,76,0.00,,---,0.00,VWS V14.01,2013-08-28 08:30:00,
2013-08-28 01:34:00,56.7,49.6,29.71,ENE,58,0.0,0.0,77,0.00,,---,0.00,VWS V14.01,2013-08-28 08:34:00,
2013-08-28 01:39:00,55.4,49.0,29.71,ENE,57,0.0,0.0,79,0.00,,---,0.00,VWS V14.01,2013-08-28 08:39:00,
2013-08-28 01:44:00,55.1,49.4,29.71,ENE,57,3.0,3.0,81,0.00,,---,0.00,VWS V14.01,2013-08-28 08:44:00,
2013-08-28 01:45:00,55.1,49.4,29.71,ENE,57,3.0,3.0,81,0.00,,---,0.00,VWS V14.01,2013-08-28 08:45:00,
2013-08-28 01:49:00,55.1,49.4,29.71,NE,55,4.0,5.0,81,0.00,,---,0.00,VWS V14.01,2013-08-28 08:49:00,
2013-08-28 01:54:00,54.9,49.2,29.72,NE,55,3.0,5.0,81,0.00,,---,0.00,VWS V14.01,2013-08-28 08:54:00,
2013-08-28 01:59:00,55.0,49.3,29.72,NE,55,0.0,5.0,81,0.00,,---,0.00,VWS V14.01,2013-08-28 08:59:00,
2013-08-28 02:00:00,55.0,49.3,29.72,NE,55,0.0,5.0,81,0.00,,---,0.00,VWS V14.01,2013-08-28 09:00:00,
2013-08-28 02:04:00,55.1,49.7,29.72,NE,55,0.0,0.0,82,0.00,,---,0.00,VWS V14.01,2013-08-28 09:04:00,
2013-08-28 02:09:00,55.3,49.9,29.72,NE,55,0.0,4.0,82,0.00,,---,0.00,VWS V14.01,2013-08-28 09:09:00,
2013-08-28 02:14:00,55.1,49.7,29.72,NE,55,0.0,4.0,82,0.00,,---,0.00,VWS V14.01,2013-08-28 09:14:00,
2013-08-28 02:15:00,55.0,49.6,29.72,NE,55,0.0,4.0,82,0.00,,---,0.00,VWS V14.01,2013-08-28 09:15:00,
2013-08-28 02:19:00,54.5,49.5,29.72,NE,55,3.0,4.0,83,0.00,,---,0.00,VWS V14.01,2013-08-28 09:19:00,
2013-08-28 02:24:00,54.7,49.7,29.73,NE,55,2.0,4.0,83,0.00,,---,0.00,VWS V14.01,2013-08-28 09:24:00,
2013-08-28 02:29:00,54.8,49.7,29.72,NE,55,0.0,4.0,83,0.00,,---,0.00,VWS V14.01,2013-08-28 09:29:00,
2013-08-28 02:30:00,54.9,49.8,29.72,NE,55,0.0,4.0,83,0.00,,---,0.00,VWS V14.01,2013-08-28 09:30:00,
2013-08-28 02:33:00,54.9,49.8,29.73,NE,55,0.0,0.0,83,0.00,,---,0.00,VWS V14.01,2013-08-28 09:33:00,
2013-08-28 02:38:00,54.4,49.0,29.73,NE,55,0.0,0.0,82,0.00,,---,0.00,VWS V14.01,2013-08-28 09:38:00,
2013-08-28 02:43:00,54.0,49.0,29.73,NE,53,5.0,5.0,83,0.00,,---,0.00,VWS V14.01,2013-08-28 09:43:00,
2013-08-28 02:45:00,53.9,48.9,29.73,NE,53,4.0,5.0,83,0.00,,---,0.00,VWS V14.01,2013-08-28 09:45:00,
2013-08-28 02:48:00,53.8,49.1,29.73,NE,54,3.0,5.0,84,0.00,,---,0.00,VWS V14.01,2013-08-28 09:48:00,
2013-08-28 02:53:00,53.8,49.1,29.73,NE,54,3.0,5.0,84,0.00,,---,0.00,VWS V14.01,2013-08-28 09:53:00,
2013-08-28 02:58:00,54.0,49.3,29.73,NE,53,0.0,5.0,84,0.00,,---,0.00,VWS V14.01,2013-08-28 09:58:00,
2013-08-28 03:00:00,53.9,49.2,29.73,NE,53,0.0,5.0,84,0.00,,---,0.00,VWS V14.01,2013-08-28 10:00:00,
2013-08-28 03:03:00,53.5,48.8,29.73,NE,52,0.0,0.0,84,0.00,,---,0.00,VWS V14.01,2013-08-28 10:03:00,
2013-08-28 03:08:00,53.3,48.9,29.73,NE,46,4.0,4.0,85,0.00,,---,0.00,VWS V14.01,2013-08-28 10:08:00,
2013-08-28 03:13:00,53.5,49.1,29.73,NE,44,5.0,6.0,85,0.00,,---,0.00,VWS V14.01,2013-08-28 10:13:00,
2013-08-28 03:15:00,53.5,49.1,29.73,NE,45,5.0,6.0,85,0.00,,---,0.00,VWS V14.01,2013-08-28 10:15:00,
2013-08-28 03:18:00,53.6,49.2,29.73,NE,45,3.0,5.0,85,0.00,,---,0.00,VWS V14.01,2013-08-28 10:18:00,
2013-08-28 03:23:00,53.7,49.0,29.73,NE,45,0.0,5.0,84,0.00,,---,0.00,VWS V14.01,2013-08-28 10:23:00,
2013-08-28 03:28:00,53.3,48.9,29.73,NE,45,0.0,5.0,85,0.00,,---,0.00,VWS V14.01,2013-08-28 10:28:00,
2013-08-28 03:30:00,53.2,48.8,29.73,NE,44,0.0,5.0,85,0.00,,---,0.00,VWS V14.01,2013-08-28 10:30:00,
2013-08-28 03:33:00,53.2,48.8,29.74,NE,45,5.0,5.0,85,0.00,,---,0.00,VWS V14.01,2013-08-28 10:33:00,
2013-08-28 03:38:00,53.5,49.1,29.74,NE,47,4.0,5.0,85,0.00,,---,0.00,VWS V14.01,2013-08-28 10:38:00,
2013-08-28 03:43:00,53.6,48.9,29.74,NE,46,2.0,5.0,84,0.00,,---,0.00,VWS V14.01,2013-08-28 10:43:00,
2013-08-28 03:45:00,53.6,48.9,29.73,NE,46,0.0,5.0,84,0.00,,---,0.00,VWS V14.01,2013-08-28 10:45:00,
2013-08-28 03:48:00,53.5,48.8,29.73,NE,46,0.0,0.0,84,0.00,,---,0.00,VWS V14.01,2013-08-28 10:48:00,
2013-08-28 03:53:00,53.2,48.5,29.73,NE,46,0.0,0.0,84,0.00,,---,0.00,VWS V14.01,2013-08-28 10:53:00,
2013-08-28 03:58:00,53.1,48.7,29.73,NE,46,0.0,0.0,85,0.00,,---,0.00,VWS V14.01,2013-08-28 10:58:00,
2013-08-28 04:00:00,53.1,48.7,29.73,NE,45,0.0,0.0,85,0.00,,---,0.00,VWS V14.01,2013-08-28 11:00:00,
2013-08-28 04:03:00,52.8,48.4,29.73,NE,45,0.0,0.0,85,0.00,,---,0.00,VWS V14.01,2013-08-28 11:03:00,
2013-08-28 04:08:00,52.6,48.2,29.73,NE,46,0.0,0.0,85,0.00,,---,0.00,VWS V14.01,2013-08-28 11:08:00,
2013-08-28 04:13:00,52.2,47.8,29.73,NE,45,0.0,0.0,85,0.00,,---,0.00,VWS V14.01,2013-08-28 11:13:00,
2013-08-28 04:15:00,52.1,47.7,29.73,NE,46,0.0,0.0,85,0.00,,---,0.00,VWS V14.01,2013-08-28 11:15:00,
2013-08-28 04:18:00,52.0,47.6,29.73,NE,45,0.0,0.0,85,0.00,,---,0.00,VWS V14.01,2013-08-28 11:18:00,
2013-08-28 04:23:00,51.7,47.7,29.74,NE,46,0.0,0.0,86,0.00,,---,0.00,VWS V14.01,2013-08-28 11:23:00,
2013-08-28 04:28:00,51.5,47.8,29.74,NE,46,0.0,0.0,87,0.00,,---,0.00,VWS V14.01,2013-08-28 11:28:00,
2013-08-28 04:30:00,51.5,47.8,29.74,NE,46,0.0,0.0,87,0.00,,---,0.00,VWS V14.01,2013-08-28 11:30:00,
2013-08-28 04:33:00,51.4,47.7,29.74,NE,45,0.0,0.0,87,0.00,,---,0.00,VWS V14.01,2013-08-28 11:33:00,
2013-08-28 04:38:00,51.3,47.6,29.74,NE,45,0.0,0.0,87,0.00,,---,0.00,VWS V14.01,2013-08-28 11:38:00,
2013-08-28 04:43:00,51.1,47.4,29.74,NE,46,0.0,0.0,87,0.00,,---,0.00,VWS V14.01,2013-08-28 11:43:00,
2013-08-28 04:45:00,51.1,47.4,29.74,NE,46,0.0,0.0,87,0.00,,---,0.00,VWS V14.01,2013-08-28 11:45:00,
2013-08-28 04:48:00,50.9,47.5,29.74,NE,45,0.0,0.0,88,0.00,,---,0.00,VWS V14.01,2013-08-28 11:48:00,
2013-08-28 04:53:00,50.7,47.6,29.74,NE,46,0.0,0.0,89,0.00,,---,0.00,VWS V14.01,2013-08-28 11:53:00,
2013-08-28 04:58:00,50.3,47.5,29.74,NE,46,0.0,0.0,90,0.00,,---,0.00,VWS V14.01,2013-08-28 11:58:00,
2013-08-28 05:00:00,50.3,47.5,29.74,NE,46,0.0,0.0,90,0.00,,---,0.00,VWS V14.01,2013-08-28 12:00:00,
2013-08-28 05:03:00,50.2,47.4,29.74,NE,45,0.0,0.0,90,0.00,,---,0.00,VWS V14.01,2013-08-28 12:03:00,
2013-08-28 05:08:00,50.4,47.9,29.74,NE,46,0.0,0.0,91,0.00,,---,0.00,VWS V14.01,2013-08-28 12:08:00,
2013-08-28 05:13:00,51.0,48.8,29.74,NE,45,0.0,0.0,92,0.00,,---,0.00,VWS V14.01,2013-08-28 12:13:00,
2013-08-28 05:15:00,51.2,48.7,29.74,NE,46,0.0,0.0,91,0.00,,---,0.00,VWS V14.01,2013-08-28 12:15:00,
2013-08-28 05:18:00,51.4,48.9,29.74,NE,46,0.0,0.0,91,0.00,,---,0.00,VWS V14.01,2013-08-28 12:18:00,
2013-08-28 05:23:00,51.0,47.3,29.74,NE,46,0.0,0.0,87,0.00,,---,0.00,VWS V14.01,2013-08-28 12:23:00,
2013-08-28 05:28:00,50.2,46.8,29.75,NE,45,0.0,0.0,88,0.00,,---,0.00,VWS V14.01,2013-08-28 12:28:00,
2013-08-28 05:30:00,50.3,46.9,29.75,NE,45,0.0,0.0,88,0.00,,---,0.00,VWS V14.01,2013-08-28 12:30:00,
2013-08-28 05:33:00,50.5,47.1,29.75,NE,48,0.0,0.0,88,0.00,,---,0.00,VWS V14.01,2013-08-28 12:33:00,
2013-08-28 05:38:00,50.8,47.4,29.75,NE,44,4.0,6.0,88,0.00,,---,0.00,VWS V14.01,2013-08-28 12:38:00,
2013-08-28 05:43:00,51.0,47.3,29.75,NE,41,4.0,6.0,87,0.00,,---,0.00,VWS V14.01,2013-08-28 12:43:00,
2013-08-28 05:45:00,51.0,47.3,29.75,NE,40,4.0,6.0,87,0.00,,---,0.00,VWS V14.01,2013-08-28 12:45:00,
2013-08-28 05:48:00,50.7,47.0,29.75,NE,41,4.0,6.0,87,0.00,,---,0.00,VWS V14.01,2013-08-28 12:48:00,
2013-08-28 05:53:00,50.5,47.1,29.75,NE,46,4.0,6.0,88,0.00,,---,0.00,VWS V14.01,2013-08-28 12:53:00,
2013-08-28 05:58:00,50.4,47.0,29.76,NE,46,0.0,6.0,88,0.00,,---,0.00,VWS V14.01,2013-08-28 12:58:00,
2013-08-28 06:00:00,50.3,46.9,29.76,NE,45,0.0,6.0,88,0.00,,---,0.00,VWS V14.01,2013-08-28 13:00:00,
2013-08-28 06:03:00,50.1,46.7,29.76,NE,45,0.0,0.0,88,0.00,,---,0.00,VWS V14.01,2013-08-28 13:03:00,
2013-08-28 06:08:00,49.8,46.4,29.76,NE,45,0.0,0.0,88,0.00,,---,0.00,VWS V14.01,2013-08-28 13:08:00,
2013-08-28 06:13:00,49.4,46.3,29.76,NE,45,0.0,0.0,89,0.00,,---,0.00,VWS V14.01,2013-08-28 13:13:00,
2013-08-28 06:15:00,49.2,45.8,29.76,NE,45,0.0,0.0,88,0.00,,---,0.00,VWS V14.01,2013-08-28 13:15:00,
2013-08-28 06:18:00,48.8,45.4,29.76,NE,45,0.0,0.0,88,0.00,,---,0.00,VWS V14.01,2013-08-28 13:18:00,
2013-08-28 06:23:00,48.4,45.6,29.76,NE,45,0.0,0.0,90,0.00,,---,0.00,VWS V14.01,2013-08-28 13:23:00,
2013-08-28 06:28:00,48.1,45.6,29.77,NE,45,0.0,0.0,91,0.00,,---,0.00,VWS V14.01,2013-08-28 13:28:00,
2013-08-28 06:30:00,48.3,46.1,29.77,NE,45,0.0,0.0,92,0.00,,---,0.00,VWS V14.01,2013-08-28 13:30:00,
2013-08-28 06:33:00,48.9,46.7,29.77,NE,45,0.0,0.0,92,0.00,,---,0.00,VWS V14.01,2013-08-28 13:33:00,
2013-08-28 06:38:00,49.4,47.2,29.77,NE,45,0.0,0.0,92,0.00,,---,0.00,VWS V14.01,2013-08-28 13:38:00,
2013-08-28 06:43:00,49.7,47.2,29.77,NE,45,0.0,0.0,91,0.00,,---,0.00,VWS V14.01,2013-08-28 13:43:00,
2013-08-28 06:45:00,49.8,47.3,29.77,NE,45,0.0,0.0,91,0.00,,---,0.00,VWS V14.01,2013-08-28 13:45:00,
2013-08-28 06:48:00,49.9,47.1,29.77,NE,45,0.0,0.0,90,0.00,,---,0.00,VWS V14.01,2013-08-28 13:48:00,
2013-08-28 06:53:00,49.9,46.8,29.78,NE,45,0.0,0.0,89,0.00,,---,0.00,VWS V14.01,2013-08-28 13:53:00,
2013-08-28 06:58:00,50.4,47.6,29.77,NE,45,0.0,0.0,90,0.00,,---,0.00,VWS V14.01,2013-08-28 13:58:00,
2013-08-28 07:00:00,50.5,47.7,29.77,NE,45,0.0,0.0,90,0.00,,---,0.00,VWS V14.01,2013-08-28 14:00:00,
2013-08-28 07:03:00,50.8,47.7,29.77,NE,45,0.0,0.0,89,0.00,,---,0.00,VWS V14.01,2013-08-28 14:03:00,
2013-08-28 07:08:00,50.8,47.4,29.77,NE,45,0.0,0.0,88,0.00,,---,0.00,VWS V14.01,2013-08-28 14:08:00,
2013-08-28 07:13:00,50.9,47.8,29.77,NE,45,0.0,0.0,89,0.00,,---,0.00,VWS V14.01,2013-08-28 14:13:00,
2013-08-28 07:15:00,49.2,45.8,29.76,NE,45,0.0,0.0,88,0.00,,---,0.00,VWS V14.01,2013-08-28 14:15:00,
2013-08-28 07:18:00,51.4,48.3,29.77,NE,45,0.0,0.0,89,0.00,,---,0.00,VWS V14.01,2013-08-28 14:18:00,
2013-08-28 07:23:00,52.1,48.7,29.78,NE,45,0.0,0.0,88,0.00,,---,0.00,VWS V14.01,2013-08-28 14:23:00,
2013-08-28 07:28:00,52.7,49.2,29.78,NE,45,0.0,0.0,88,0.00,,---,0.00,VWS V14.01,2013-08-28 14:28:00,
2013-08-28 07:30:00,52.9,49.5,29.78,ESE,109,0.0,0.0,88,0.00,,---,0.00,VWS V14.01,2013-08-28 14:30:00,
2013-08-28 07:33:00,53.2,49.7,29.78,ESE,109,0.0,0.0,88,0.00,,---,0.00,VWS V14.01,2013-08-28 14:33:00,
2013-08-28 07:38:00,53.3,49.5,29.78,ESE,109,0.0,0.0,87,0.00,,---,0.00,VWS V14.01,2013-08-28 14:38:00,
2013-08-28 07:43:00,53.6,49.8,29.78,ESE,109,0.0,0.0,87,0.00,,---,0.00,VWS V14.01,2013-08-28 14:43:00,
2013-08-28 07:45:00,53.7,49.9,29.78,ESE,109,0.0,0.0,87,0.00,,---,0.00,VWS V14.01,2013-08-28 14:45:00,
2013-08-28 07:47:00,54.2,50.4,29.79,ESE,109,0.0,0.0,87,0.00,,---,0.00,VWS V14.01,2013-08-28 14:47:00,
2013-08-28 07:52:00,54.9,50.8,29.78,ESE,109,0.0,0.0,86,0.00,,---,0.00,VWS V14.01,2013-08-28 14:52:00,
2013-08-28 07:57:00,55.6,51.2,29.79,ESE,109,0.0,0.0,85,0.00,,---,0.00,VWS V14.01,2013-08-28 14:57:00,
2013-08-28 08:00:00,55.9,51.5,29.79,ESE,109,0.0,0.0,85,0.00,,---,0.00,VWS V14.01,2013-08-28 15:00:00,
2013-08-28 08:02:00,56.3,51.5,29.79,ESE,109,0.0,0.0,84,0.00,,---,0.00,VWS V14.01,2013-08-28 15:02:00,
2013-08-28 08:07:00,56.4,51.6,29.79,ESE,109,0.0,0.0,84,0.00,,---,0.00,VWS V14.01,2013-08-28 15:07:00,
2013-08-28 08:12:00,56.6,51.5,29.78,ESE,109,0.0,0.0,83,0.00,,---,0.00,VWS V14.01,2013-08-28 15:12:00,
2013-08-28 08:15:00,56.7,51.6,29.78,ESE,108,0.0,0.0,83,0.00,,---,0.00,VWS V14.01,2013-08-28 15:15:00,
2013-08-28 08:17:00,56.8,51.7,29.79,ESE,108,0.0,0.0,83,0.00,,---,0.00,VWS V14.01,2013-08-28 15:17:00,
2013-08-28 08:22:00,57.0,51.9,29.78,ESE,107,0.0,0.0,83,0.00,,---,0.00,VWS V14.01,2013-08-28 15:22:00,
2013-08-28 08:27:00,57.4,52.0,29.78,ESE,107,0.0,0.0,82,0.00,,---,0.00,VWS V14.01,2013-08-28 15:27:00,
2013-08-28 08:30:00,57.5,51.7,29.78,ESE,108,0.0,0.0,81,0.00,,---,0.00,VWS V14.01,2013-08-28 15:30:00,
2013-08-28 08:32:00,57.9,52.5,29.78,ESE,107,0.0,0.0,82,0.00,,---,0.00,VWS V14.01,2013-08-28 15:32:00,
2013-08-28 08:37:00,58.3,52.5,29.78,ESE,108,0.0,0.0,81,0.00,,---,0.00,VWS V14.01,2013-08-28 15:37:00,
2013-08-28 08:42:00,58.9,52.8,29.78,ESE,108,0.0,0.0,80,0.00,,---,0.00,VWS V14.01,2013-08-28 15:42:00,
2013-08-28 08:45:00,59.0,52.8,29.78,ESE,108,0.0,0.0,80,0.00,,---,0.00,VWS V14.01,2013-08-28 15:45:00,
2013-08-28 08:47:00,59.3,52.8,29.78,ESE,108,0.0,0.0,79,0.00,,---,0.00,VWS V14.01,2013-08-28 15:47:00,
2013-08-28 08:52:00,59.8,52.9,29.78,ESE,108,0.0,0.0,78,0.00,,---,0.00,VWS V14.01,2013-08-28 15:52:00,
2013-08-28 08:57:00,60.9,53.7,29.78,ESE,107,0.0,0.0,77,0.00,,---,0.00,VWS V14.01,2013-08-28 15:57:00,
2013-08-28 09:00:00,61.3,54.0,29.78,ESE,107,0.0,0.0,77,0.00,,---,0.00,VWS V14.01,2013-08-28 16:00:00,
2013-08-28 09:02:00,61.7,53.7,29.78,ESE,107,0.0,0.0,75,0.00,,---,0.00,VWS V14.01,2013-08-28 16:02:00,
2013-08-28 09:07:00,62.2,54.2,29.78,ESE,108,0.0,0.0,75,0.00,,---,0.00,VWS V14.01,2013-08-28 16:07:00,
2013-08-28 09:12:00,62.3,54.3,29.78,ESE,107,0.0,0.0,75,0.00,,---,0.00,VWS V14.01,2013-08-28 16:12:00,
2013-08-28 09:15:00,62.4,54.0,29.78,ESE,108,0.0,0.0,74,0.00,,---,0.00,VWS V14.01,2013-08-28 16:15:00,
2013-08-28 09:17:00,63.0,55.0,29.78,ESE,108,0.0,0.0,75,0.00,,---,0.00,VWS V14.01,2013-08-28 16:17:00,
2013-08-28 09:22:00,63.7,54.1,29.78,ESE,107,0.0,0.0,71,0.00,,---,0.00,VWS V14.01,2013-08-28 16:22:00,
2013-08-28 09:27:00,64.6,54.6,29.78,ESE,108,0.0,0.0,70,0.00,,---,0.00,VWS V14.01,2013-08-28 16:27:00,
2013-08-28 09:30:00,64.9,55.7,29.78,ESE,107,0.0,0.0,72,0.00,,---,0.00,VWS V14.01,2013-08-28 16:30:00,
2013-08-28 09:32:00,65.4,55.8,29.77,ESE,108,0.0,0.0,71,0.00,,---,0.00,VWS V14.01,2013-08-28 16:32:00,
2013-08-28 09:37:00,65.8,55.8,29.77,ESE,107,0.0,0.0,70,0.00,,---,0.00,VWS V14.01,2013-08-28 16:37:00,
2013-08-28 09:42:00,65.9,55.8,29.77,ESE,108,0.0,0.0,70,0.00,,---,0.00,VWS V14.01,2013-08-28 16:42:00,
2013-08-28 09:45:00,66.0,56.0,29.77,ESE,108,0.0,0.0,70,0.00,,---,0.00,VWS V14.01,2013-08-28 16:45:00,
2013-08-28 09:47:00,66.2,56.1,29.77,ESE,108,0.0,0.0,70,0.00,,---,0.00,VWS V14.01,2013-08-28 16:47:00,
2013-08-28 09:52:00,66.3,56.6,29.77,ESE,108,0.0,0.0,71,0.00,,---,0.00,VWS V14.01,2013-08-28 16:52:00,
2013-08-28 09:57:00,66.8,56.3,29.77,ESE,107,0.0,0.0,69,0.00,,---,0.00,VWS V14.01,2013-08-28 16:57:00,
2013-08-28 10:00:00,67.0,56.1,29.77,ESE,108,0.0,0.0,68,0.00,,---,0.00,VWS V14.01,2013-08-28 17:00:00,
2013-08-28 10:02:00,67.6,56.7,29.77,ESE,107,0.0,0.0,68,0.00,,---,0.00,VWS V14.01,2013-08-28 17:02:00,
2013-08-28 10:07:00,68.6,56.8,29.77,ESE,107,0.0,0.0,66,0.00,,---,0.00,VWS V14.01,2013-08-28 17:07:00,
2013-08-28 10:12:00,69.5,56.4,29.77,ESE,108,0.0,0.0,63,0.00,,---,0.00,VWS V14.01,2013-08-28 17:12:00,
2013-08-28 10:15:00,69.8,57.1,29.77,ESE,108,0.0,0.0,64,0.00,,---,0.00,VWS V14.01,2013-08-28 17:15:00,
2013-08-28 10:17:00,70.0,56.8,29.77,ESE,108,0.0,0.0,63,0.00,,---,0.00,VWS V14.01,2013-08-28 17:17:00,
2013-08-28 10:22:00,70.5,56.4,29.77,ESE,108,0.0,0.0,61,0.00,,---,0.00,VWS V14.01,2013-08-28 17:22:00,
2013-08-28 10:27:00,70.8,56.2,29.77,ESE,107,0.0,0.0,60,0.00,,---,0.00,VWS V14.01,2013-08-28 17:27:00,
2013-08-28 10:30:00,71.0,56.4,29.77,ESE,108,0.0,0.0,60,0.00,,---,0.00,VWS V14.01,2013-08-28 17:30:00,
2013-08-28 10:32:00,71.4,56.8,29.77,ESE,108,0.0,0.0,60,0.00,,---,0.00,VWS V14.01,2013-08-28 17:32:00,
2013-08-28 10:37:00,71.8,56.2,29.77,ESE,108,0.0,0.0,58,0.00,,---,0.00,VWS V14.01,2013-08-28 17:37:00,
2013-08-28 10:42:00,72.1,56.0,29.77,ESE,108,0.0,0.0,57,0.00,,---,0.00,VWS V14.01,2013-08-28 17:42:00,
2013-08-28 10:45:00,72.1,55.1,29.77,ESE,105,0.0,0.0,55,0.00,,---,0.00,VWS V14.01,2013-08-28 17:45:00,
2013-08-28 10:47:00,72.2,55.7,29.77,ESE,105,0.0,0.0,56,0.00,,---,0.00,VWS V14.01,2013-08-28 17:47:00,
2013-08-28 10:52:00,72.6,56.0,29.77,ESE,105,0.0,0.0,56,0.00,,---,0.00,VWS V14.01,2013-08-28 17:52:00,
2013-08-28 10:57:00,73.2,55.6,29.77,ESE,105,0.0,0.0,54,0.00,,---,0.00,VWS V14.01,2013-08-28 17:57:00,
2013-08-28 11:00:00,73.6,57.0,29.77,ESE,105,0.0,0.0,56,0.00,,---,0.00,VWS V14.01,2013-08-28 18:00:00,
2013-08-28 11:02:00,74.0,56.3,29.77,ESE,105,0.0,0.0,54,0.00,,---,0.00,VWS V14.01,2013-08-28 18:02:00,
2013-08-28 11:07:00,74.2,52.7,29.77,ESE,105,0.0,0.0,47,0.00,,---,0.00,VWS V14.01,2013-08-28 18:07:00,
2013-08-28 11:12:00,74.5,55.2,29.77,ENE,74,0.0,1.0,51,0.00,,---,0.00,VWS V14.01,2013-08-28 18:12:00,
2013-08-28 11:15:00,74.5,54.1,29.77,ENE,74,0.0,1.0,49,0.00,,---,0.00,VWS V14.01,2013-08-28 18:15:00,
2013-08-28 11:17:00,74.4,53.5,29.77,ENE,74,0.0,0.0,48,0.00,,---,0.00,VWS V14.01,2013-08-28 18:17:00,
2013-08-28 11:22:00,74.6,54.2,29.77,NE,53,3.0,4.0,49,0.00,,---,0.00,VWS V14.01,2013-08-28 18:22:00,
2013-08-28 11:27:00,74.5,54.1,29.77,NE,53,1.0,4.0,49,0.00,,---,0.00,VWS V14.01,2013-08-28 18:27:00,
2013-08-28 11:30:00,74.7,52.6,29.77,NE,53,0.0,4.0,46,0.00,,---,0.00,VWS V14.01,2013-08-28 18:30:00,
2013-08-28 11:32:00,74.8,50.8,29.76,NE,53,0.0,4.0,43,0.00,,---,0.00,VWS V14.01,2013-08-28 18:32:00,
2013-08-28 11:37:00,75.2,52.4,29.76,NE,53,0.0,4.0,45,0.00,,---,0.00,VWS V14.01,2013-08-28 18:37:00,
2013-08-28 11:42:00,75.5,53.9,29.76,NE,53,2.0,4.0,47,0.00,,---,0.00,VWS V14.01,2013-08-28 18:42:00,
2013-08-28 11:45:00,75.6,50.9,29.76,NE,52,0.0,4.0,42,0.00,,---,0.00,VWS V14.01,2013-08-28 18:45:00,
2013-08-28 11:47:00,75.7,52.3,29.76,NE,52,0.0,0.0,44,0.00,,---,0.00,VWS V14.01,2013-08-28 18:47:00,
2013-08-28 11:52:00,76.2,53.9,29.76,NE,53,0.0,0.0,46,0.00,,---,0.00,VWS V14.01,2013-08-28 18:52:00,
2013-08-28 11:57:00,76.4,51.6,29.75,NE,52,0.0,4.0,42,0.00,,---,0.00,VWS V14.01,2013-08-28 18:57:00,
2013-08-28 12:00:00,76.6,55.5,29.75,NE,53,0.0,4.0,48,0.00,,---,0.00,VWS V14.01,2013-08-28 19:00:00,
2013-08-28 12:02:00,76.7,51.2,29.75,WNW,300,2.0,5.0,41,0.00,,---,0.00,VWS V14.01,2013-08-28 19:02:00,
2013-08-28 12:07:00,77.1,50.9,29.75,WNW,287,2.0,5.0,40,0.00,,---,0.00,VWS V14.01,2013-08-28 19:07:00,
2013-08-28 12:12:00,77.1,49.6,29.75,West,261,2.0,6.0,38,0.00,,---,0.00,VWS V14.01,2013-08-28 19:12:00,
2013-08-28 12:15:00,77.0,50.2,29.75,West,261,2.0,6.0,39,0.00,,---,0.00,VWS V14.01,2013-08-28 19:15:00,
2013-08-28 12:17:00,76.9,49.4,29.75,West,261,0.0,4.0,38,0.00,,---,0.00,VWS V14.01,2013-08-28 19:17:00,
2013-08-28 12:22:00,77.1,49.6,29.75,North,360,0.0,4.0,38,0.00,,---,0.00,VWS V14.01,2013-08-28 19:22:00,
2013-08-28 12:27:00,77.5,47.7,29.74,NNE,14,0.0,4.0,35,0.00,,---,0.00,VWS V14.01,2013-08-28 19:27:00,
2013-08-28 12:30:00,77.6,48.6,29.74,NE,37,0.0,4.0,36,0.00,,---,0.00,VWS V14.01,2013-08-28 19:30:00,
2013-08-28 12:32:00,77.8,48.0,29.74,NE,38,0.0,0.0,35,0.00,,---,0.00,VWS V14.01,2013-08-28 19:32:00,
2013-08-28 12:37:00,78.4,50.0,29.74,NE,38,0.0,0.0,37,0.00,,---,0.00,VWS V14.01,2013-08-28 19:37:00,
2013-08-28 12:42:00,78.5,49.3,29.74,NNE,29,0.0,0.0,36,0.00,,---,0.00,VWS V14.01,2013-08-28 19:42:00,
2013-08-28 12:45:00,78.6,49.4,29.74,NNE,29,0.0,0.0,36,0.00,,---,0.00,VWS V14.01,2013-08-28 19:45:00,
2013-08-28 12:47:00,78.7,51.7,29.74,NW,319,0.0,3.0,39,0.00,,---,0.00,VWS V14.01,2013-08-28 19:47:00,
2013-08-28 12:52:00,78.9,48.2,29.73,West,275,3.0,8.0,34,0.00,,---,0.00,VWS V14.01,2013-08-28 19:52:00,
2013-08-28 12:57:00,78.9,47.4,29.73,SW,234,0.0,8.0,33,0.00,,---,0.00,VWS V14.01,2013-08-28 19:57:00,
2013-08-28 13:00:00,78.7,48.0,29.73,WSW,237,4.0,8.0,34,0.00,,---,0.00,VWS V14.01,2013-08-28 20:00:00,
2013-08-28 13:02:00,78.7,48.8,29.73,WSW,237,0.0,4.0,35,0.00,,---,0.00,VWS V14.01,2013-08-28 20:02:00,
2013-08-28 13:07:00,78.7,51.0,29.73,West,279,4.0,9.0,38,0.00,,---,0.00,VWS V14.01,2013-08-28 20:07:00,
2013-08-28 13:11:00,78.7,48.8,29.73,West,272,9.0,9.0,35,0.00,,---,0.00,VWS V14.01,2013-08-28 20:11:00,
2013-08-28 13:15:00,78.7,48.0,29.73,West,265,7.0,10.0,34,0.00,,---,0.00,VWS V14.01,2013-08-28 20:15:00,
2013-08-28 13:16:00,78.7,47.2,29.73,SW,235,6.0,8.0,33,0.00,,---,0.00,VWS V14.01,2013-08-28 20:16:00,
2013-08-28 13:21:00,79.3,50.1,29.73,WSW,254,4.0,12.0,36,0.00,,---,0.00,VWS V14.01,2013-08-28 20:21:00,
2013-08-28 13:26:00,79.6,49.6,29.73,SW,223,6.0,12.0,35,0.00,,---,0.00,VWS V14.01,2013-08-28 20:26:00,
2013-08-28 13:30:00,79.5,48.7,29.73,WSW,254,3.0,12.0,34,0.00,,---,0.00,VWS V14.01,2013-08-28 20:30:00,
2013-08-28 13:31:00,79.5,50.2,29.73,West,269,6.0,11.0,36,0.00,,---,0.00,VWS V14.01,2013-08-28 20:31:00,
2013-08-28 13:36:00,79.6,48.8,29.73,WSW,248,5.0,11.0,34,0.00,,---,0.00,VWS V14.01,2013-08-28 20:36:00,
2013-08-28 13:41:00,79.5,47.9,29.73,WSW,250,3.0,11.0,33,0.00,,---,0.00,VWS V14.01,2013-08-28 20:41:00,
2013-08-28 13:45:00,79.5,49.5,29.73,West,281,3.0,11.0,35,0.00,,---,0.00,VWS V14.01,2013-08-28 20:45:00,
2013-08-28 13:46:00,79.6,50.3,29.73,West,280,5.0,6.0,36,0.00,,---,0.00,VWS V14.01,2013-08-28 20:46:00,
2013-08-28 13:51:00,79.5,47.9,29.73,WNW,283,0.0,9.0,33,0.00,,---,0.00,VWS V14.01,2013-08-28 20:51:00,
2013-08-28 13:56:00,79.8,48.2,29.73,WNW,296,6.0,10.0,33,0.00,,---,0.00,VWS V14.01,2013-08-28 20:56:00,
2013-08-28 14:00:00,79.9,47.4,29.73,NW,310,4.0,10.0,32,0.00,,---,0.00,VWS V14.01,2013-08-28 21:00:00,
2013-08-28 14:01:00,80.1,48.4,29.72,WNW,294,5.0,5.0,33,0.00,,---,0.00,VWS V14.01,2013-08-28 21:01:00,
2013-08-28 14:06:00,80.4,48.7,29.72,West,273,0.0,9.0,33,0.00,,---,0.00,VWS V14.01,2013-08-28 21:06:00,
2013-08-28 14:11:00,80.6,48.0,29.72,WNW,296,5.0,9.0,32,0.00,,---,0.00,VWS V14.01,2013-08-28 21:11:00,
2013-08-28 14:15:00,80.7,47.3,29.72,North,355,0.0,9.0,31,0.00,,---,0.00,VWS V14.01,2013-08-28 21:15:00,
2013-08-28 14:16:00,80.9,52.2,29.72,NW,321,0.0,6.0,37,0.00,,---,0.00,VWS V14.01,2013-08-28 21:16:00,
2013-08-28 14:21:00,81.0,46.7,29.72,NW,319,0.0,8.0,30,0.00,,---,0.00,VWS V14.01,2013-08-28 21:21:00,
2013-08-28 14:26:00,81.3,50.3,29.72,NW,314,0.0,8.0,34,0.00,,---,0.00,VWS V14.01,2013-08-28 21:26:00,
2013-08-28 14:30:00,81.5,47.1,29.72,WNW,287,1.0,8.0,30,0.00,,---,0.00,VWS V14.01,2013-08-28 21:30:00,
2013-08-28 14:31:00,81.5,48.0,29.72,WNW,287,3.0,7.0,31,0.00,,---,0.00,VWS V14.01,2013-08-28 21:31:00,
2013-08-28 14:36:00,81.6,46.3,29.71,NW,304,0.0,7.0,29,0.00,,---,0.00,VWS V14.01,2013-08-28 21:36:00,
2013-08-28 14:41:00,81.8,47.4,29.71,SW,214,2.0,11.0,30,0.00,,---,0.00,VWS V14.01,2013-08-28 21:41:00,
2013-08-28 14:45:00,81.9,46.6,29.71,SW,227,6.0,11.0,29,0.00,,---,0.00,VWS V14.01,2013-08-28 21:45:00,
2013-08-28 14:46:00,81.9,45.6,29.71,WSW,257,1.0,10.0,28,0.00,,---,0.00,VWS V14.01,2013-08-28 21:46:00,
2013-08-28 14:51:00,82.0,49.3,29.71,WNW,294,4.0,10.0,32,0.00,,---,0.00,VWS V14.01,2013-08-28 21:51:00,
2013-08-28 14:56:00,82.1,46.7,29.70,NW,310,8.0,10.0,29,0.00,,---,0.00,VWS V14.01,2013-08-28 21:56:00,
2013-08-28 15:00:00,82.3,48.7,29.70,WNW,301,0.0,10.0,31,0.00,,---,0.00,VWS V14.01,2013-08-28 22:00:00,
2013-08-28 15:01:00,82.4,47.0,29.70,North,355,0.0,0.0,29,0.00,,---,0.00,VWS V14.01,2013-08-28 22:01:00,
2013-08-28 15:06:00,82.5,46.1,29.70,NW,317,0.0,1.0,28,0.00,,---,0.00,VWS V14.01,2013-08-28 22:06:00,
2013-08-28 15:11:00,82.8,46.4,29.70,WNW,297,0.0,3.0,28,0.00,,---,0.00,VWS V14.01,2013-08-28 22:11:00,
2013-08-28 15:15:00,82.9,46.5,29.70,West,259,9.0,10.0,28,0.00,,---,0.00,VWS V14.01,2013-08-28 22:15:00,
2013-08-28 15:16:00,82.9,48.3,29.70,WSW,254,5.0,9.0,30,0.00,,---,0.00,VWS V14.01,2013-08-28 22:16:00,
2013-08-28 15:21:00,82.7,47.2,29.69,West,280,7.0,10.0,29,0.00,,---,0.00,VWS V14.01,2013-08-28 22:21:00,
2013-08-28 15:26:00,82.5,47.1,29.70,WSW,241,2.0,10.0,29,0.00,,---,0.00,VWS V14.01,2013-08-28 22:26:00,
2013-08-28 15:30:00,82.5,49.7,29.69,WSW,240,0.0,10.0,32,0.00,,---,0.00,VWS V14.01,2013-08-28 22:30:00,
2013-08-28 15:31:00,82.6,47.2,29.69,WSW,238,0.0,0.0,29,0.00,,---,0.00,VWS V14.01,2013-08-28 22:31:00,
2013-08-28 15:36:00,82.9,47.4,29.69,WSW,250,6.0,6.0,29,0.00,,---,0.00,VWS V14.01,2013-08-28 22:36:00,
2013-08-28 15:41:00,82.8,45.4,29.69,WSW,252,0.0,7.0,27,0.00,,---,0.00,VWS V14.01,2013-08-28 22:41:00,
2013-08-28 15:45:00,82.7,49.0,29.69,WSW,254,0.0,7.0,31,0.00,,---,0.00,VWS V14.01,2013-08-28 22:45:00,
2013-08-28 15:46:00,82.6,46.2,29.69,WSW,254,3.0,7.0,28,0.00,,---,0.00,VWS V14.01,2013-08-28 22:46:00,
2013-08-28 15:51:00,82.5,46.1,29.69,WSW,237,5.0,8.0,28,0.00,,---,0.00,VWS V14.01,2013-08-28 22:51:00,
2013-08-28 15:56:00,82.5,45.2,29.69,SW,232,5.0,8.0,27,0.00,,---,0.00,VWS V14.01,2013-08-28 22:56:00,
2013-08-28 16:00:00,82.6,46.2,29.69,SW,233,3.0,8.0,28,0.00,,---,0.00,VWS V14.01,2013-08-28 23:00:00,
2013-08-28 16:01:00,82.7,46.3,29.69,SW,235,4.0,5.0,28,0.00,,---,0.00,VWS V14.01,2013-08-28 23:01:00,
2013-08-28 16:06:00,82.7,47.2,29.69,SW,235,0.0,5.0,29,0.00,,---,0.00,VWS V14.01,2013-08-28 23:06:00,
2013-08-28 16:11:00,82.6,46.2,29.69,SW,235,0.0,5.0,28,0.00,,---,0.00,VWS V14.01,2013-08-28 23:11:00,
2013-08-28 16:15:00,82.7,45.3,29.69,SW,235,0.0,5.0,27,0.00,,---,0.00,VWS V14.01,2013-08-28 23:15:00,
2013-08-28 16:16:00,82.9,45.5,29.69,SW,235,0.0,0.0,27,0.00,,---,0.00,VWS V14.01,2013-08-28 23:16:00,
2013-08-28 16:21:00,82.9,45.5,29.69,SW,234,0.0,0.0,27,0.00,,---,0.00,VWS V14.01,2013-08-28 23:21:00,
2013-08-28 16:26:00,83.0,47.5,29.69,SW,234,0.0,0.0,29,0.00,,---,0.00,VWS V14.01,2013-08-28 23:26:00,
2013-08-28 16:30:00,83.2,45.8,29.69,WSW,238,0.0,0.0,27,0.00,,---,0.00,VWS V14.01,2013-08-28 23:30:00,
2013-08-28 16:31:00,83.2,45.8,29.69,WSW,238,0.0,0.0,27,0.00,,---,0.00,VWS V14.01,2013-08-28 23:31:00,
2013-08-28 16:36:00,83.3,49.5,29.68,NW,324,5.0,6.0,31,0.00,,---,0.00,VWS V14.01,2013-08-28 23:36:00,
2013-08-28 16:41:00,83.3,52.0,29.68,NNW,338,0.0,6.0,34,0.00,,---,0.00,VWS V14.01,2013-08-28 23:41:00,
2013-08-28 16:45:00,83.3,48.7,29.68,NNW,337,0.0,6.0,30,0.00,,---,0.00,VWS V14.01,2013-08-28 23:45:00,
2013-08-28 16:46:00,83.3,49.5,29.68,NW,314,2.0,5.0,31,0.00,,---,0.00,VWS V14.01,2013-08-28 23:46:00,
2013-08-28 16:51:00,83.5,45.0,29.68,NW,309,4.0,7.0,26,0.00,,---,0.00,VWS V14.01,2013-08-28 23:51:00,
2013-08-28 16:56:00,83.9,47.3,29.68,NW,306,4.0,7.0,28,0.00,,---,0.00,VWS V14.01,2013-08-28 23:56:00,
2013-08-28 17:00:00,84.1,46.5,29.68,NW,306,0.0,7.0,27,0.00,,---,0.00,VWS V14.01,2013-08-29 00:00:00,
2013-08-28 17:01:00,84.1,47.5,29.68,NW,307,3.0,6.0,28,0.00,,---,0.00,VWS V14.01,2013-08-29 00:01:00,
2013-08-28 17:06:00,84.3,45.7,29.68,NW,318,4.0,7.0,26,0.00,,---,0.00,VWS V14.01,2013-08-29 00:06:00,
2013-08-28 17:11:00,84.4,45.8,29.68,NW,319,0.0,7.0,26,0.00,,---,0.00,VWS V14.01,2013-08-29 00:11:00,
2013-08-28 17:15:00,84.3,45.7,29.68,WNW,286,4.0,7.0,26,0.00,,---,0.00,VWS V14.01,2013-08-29 00:15:00,
2013-08-28 17:16:00,84.2,45.6,29.68,WNW,298,4.0,6.0,26,0.00,,---,0.00,VWS V14.01,2013-08-29 00:16:00,
2013-08-28 17:21:00,83.8,46.3,29.68,WNW,298,0.0,6.0,27,0.00,,---,0.00,VWS V14.01,2013-08-29 00:21:00,
2013-08-28 17:26:00,83.1,49.4,29.68,WNW,298,0.0,6.0,31,0.00,,---,0.00,VWS V14.01,2013-08-29 00:26:00,
2013-08-28 17:30:00,82.9,49.2,29.68,WNW,298,0.0,6.0,31,0.00,,---,0.00,VWS V14.01,2013-08-29 00:30:00,
2013-08-28 17:31:00,82.9,47.4,29.68,WNW,298,0.0,0.0,29,0.00,,---,0.00,VWS V14.01,2013-08-29 00:31:00,
2013-08-28 17:36:00,83.4,45.0,29.68,WNW,298,0.0,0.0,26,0.00,,---,0.00,VWS V14.01,2013-08-29 00:36:00,
2013-08-28 17:41:00,83.9,46.4,29.68,WNW,298,0.0,0.0,27,0.00,,---,0.00,VWS V14.01,2013-08-29 00:41:00,
2013-08-28 17:45:00,84.2,46.6,29.68,WSW,250,0.0,7.0,27,0.00,,---,0.00,VWS V14.01,2013-08-29 00:45:00,
2013-08-28 17:46:00,84.2,46.6,29.68,WSW,250,4.0,5.0,27,0.00,,---,0.00,VWS V14.01,2013-08-29 00:46:00,
2013-08-28 17:51:00,84.2,50.3,29.68,WSW,251,0.0,5.0,31,0.00,,---,0.00,VWS V14.01,2013-08-29 00:51:00,
2013-08-28 17:56:00,83.9,45.4,29.68,WSW,251,0.0,5.0,26,0.00,,---,0.00,VWS V14.01,2013-08-29 00:56:00,
2013-08-28 18:00:00,83.8,47.2,29.68,WSW,250,0.0,5.0,28,0.00,,---,0.00,VWS V14.01,2013-08-29 01:00:00,
2013-08-28 18:01:00,83.8,45.3,29.68,WSW,251,0.0,0.0,26,0.00,,---,0.00,VWS V14.01,2013-08-29 01:01:00,
2013-08-28 18:06:00,84.0,47.4,29.68,WSW,251,0.0,1.0,28,0.00,,---,0.00,VWS V14.01,2013-08-29 01:06:00,
2013-08-28 18:11:00,84.1,50.2,29.68,WSW,251,0.0,1.0,31,0.00,,---,0.00,VWS V14.01,2013-08-29 01:11:00,
2013-08-28 18:15:00,84.0,48.4,29.68,WSW,251,0.0,1.0,29,0.00,,---,0.00,VWS V14.01,2013-08-29 01:15:00,
2013-08-28 18:16:00,84.0,45.5,29.67,WSW,250,0.0,0.0,26,0.00,,---,0.00,VWS V14.01,2013-08-29 01:16:00,
2013-08-28 18:21:00,83.6,47.1,29.67,West,265,5.0,8.0,28,0.00,,---,0.00,VWS V14.01,2013-08-29 01:21:00,
2013-08-28 18:26:00,83.5,46.0,29.67,West,265,0.0,8.0,27,0.00,,---,0.00,VWS V14.01,2013-08-29 01:26:00,
2013-08-28 18:30:00,83.7,47.2,29.67,West,265,0.0,8.0,28,0.00,,---,0.00,VWS V14.01,2013-08-29 01:30:00,
2013-08-28 18:31:00,83.7,48.1,29.67,West,265,0.0,0.0,29,0.00,,---,0.00,VWS V14.01,2013-08-29 01:31:00,
2013-08-28 18:36:00,83.5,51.4,29.67,West,265,0.0,0.0,33,0.00,,---,0.00,VWS V14.01,2013-08-29 01:36:00,
2013-08-28 18:40:00,82.9,51.7,29.67,West,265,0.0,0.0,34,0.00,,---,0.00,VWS V14.01,2013-08-29 01:40:00,
2013-08-28 18:45:00,82.1,49.3,29.67,West,265,0.0,0.0,32,0.00,,---,0.00,VWS V14.01,2013-08-29 01:45:00,
2013-08-28 18:50:00,81.6,47.2,29.67,West,265,0.0,0.0,30,0.00,,---,0.00,VWS V14.01,2013-08-29 01:50:00,
2013-08-28 18:55:00,81.7,46.4,29.67,West,265,0.0,0.0,29,0.00,,---,0.00,VWS V14.01,2013-08-29 01:55:00,
2013-08-28 19:00:00,82.0,48.4,29.67,West,265,0.0,0.0,31,0.00,,---,0.00,VWS V14.01,2013-08-29 02:00:00,
2013-08-28 19:05:00,81.5,48.0,29.67,West,265,0.0,0.0,31,0.00,,---,0.00,VWS V14.01,2013-08-29 02:05:00,
2013-08-28 19:10:00,80.1,52.2,29.67,West,265,6.0,6.0,38,0.00,,---,0.00,VWS V14.01,2013-08-29 02:10:00,
2013-08-28 19:15:00,79.2,49.2,29.68,West,277,5.0,8.0,35,0.00,,---,0.00,VWS V14.01,2013-08-29 02:15:00,
2013-08-28 19:20:00,78.4,50.7,29.68,WNW,288,6.0,9.0,38,0.00,,---,0.00,VWS V14.01,2013-08-29 02:20:00,
2013-08-28 19:25:00,77.5,49.9,29.68,WNW,290,10.0,13.0,38,0.00,,---,0.00,VWS V14.01,2013-08-29 02:25:00,
2013-08-28 19:30:00,77.2,49.7,29.68,WNW,292,9.0,12.0,38,0.00,,---,0.00,VWS V14.01,2013-08-29 02:30:00,
2013-08-28 19:35:00,77.2,50.3,29.68,WNW,300,15.0,18.0,39,0.00,,---,0.00,VWS V14.01,2013-08-29 02:35:00,
2013-08-28 19:40:00,77.2,51.0,29.68,WNW,302,8.0,18.0,40,0.00,,---,0.00,VWS V14.01,2013-08-29 02:40:00,
2013-08-28 19:45:00,76.9,51.4,29.68,WNW,300,14.0,17.0,41,0.00,,---,0.00,VWS V14.01,2013-08-29 02:45:00,
2013-08-28 19:50:00,76.6,51.8,29.68,NW,307,12.0,21.0,42,0.00,,---,0.00,VWS V14.01,2013-08-29 02:50:00,
2013-08-28 19:55:00,76.4,52.3,29.68,WNW,298,8.0,23.0,43,0.00,,---,0.00,VWS V14.01,2013-08-29 02:55:00,
2013-08-28 20:00:00,76.2,52.7,29.68,WNW,298,9.0,13.0,44,0.00,,---,0.00,VWS V14.01,2013-08-29 03:00:00,
2013-08-28 20:05:00,75.9,52.5,29.68,WNW,302,7.0,20.0,44,0.00,,---,0.00,VWS V14.01,2013-08-29 03:05:00,
2013-08-28 20:10:00,75.4,52.6,29.69,NW,304,13.0,20.0,45,0.00,,---,0.00,VWS V14.01,2013-08-29 03:10:00,
2013-08-28 20:15:00,75.1,52.9,29.69,WNW,302,9.0,12.0,46,0.00,,---,0.00,VWS V14.01,2013-08-29 03:15:00,
2013-08-28 20:20:00,74.9,52.8,29.69,NW,304,19.0,21.0,46,0.00,,---,0.00,VWS V14.01,2013-08-29 03:20:00,
2013-08-28 20:25:00,74.6,53.1,29.69,NW,306,10.0,21.0,47,0.00,,---,0.00,VWS V14.01,2013-08-29 03:25:00,
2013-08-28 20:30:00,74.2,53.3,29.70,WNW,303,14.0,14.0,48,0.00,,---,0.00,VWS V14.01,2013-08-29 03:30:00,
2013-08-28 20:35:00,73.9,53.6,29.70,WNW,298,13.0,17.0,49,0.00,,---,0.00,VWS V14.01,2013-08-29 03:35:00,
2013-08-28 20:40:00,73.7,53.9,29.70,NW,307,17.0,21.0,50,0.00,,---,0.00,VWS V14.01,2013-08-29 03:40:00,
2013-08-28 20:45:00,73.6,53.8,29.71,NW,305,11.0,16.0,50,0.00,,---,0.00,VWS V14.01,2013-08-29 03:45:00,
2013-08-28 20:50:00,73.5,54.3,29.71,NW,319,9.0,17.0,51,0.00,,---,0.00,VWS V14.01,2013-08-29 03:50:00,
2013-08-28 20:55:00,73.3,54.1,29.71,NW,322,3.0,18.0,51,0.00,,---,0.00,VWS V14.01,2013-08-29 03:55:00,
2013-08-28 21:00:00,73.1,54.5,29.72,WNW,298,7.0,10.0,52,0.00,,---,0.00,VWS V14.01,2013-08-29 04:00:00,
2013-08-28 21:01:00,73.1,54.5,29.72,WNW,302,6.0,10.0,52,0.00,,---,0.00,VWS V14.01,2013-08-29 04:01:00,
2013-08-28 21:06:00,73.0,54.4,29.72,West,273,4.0,17.0,52,0.00,,---,0.00,VWS V14.01,2013-08-29 04:06:00,
2013-08-28 21:11:00,72.8,54.7,29.72,NW,320,2.0,17.0,53,0.00,,---,0.00,VWS V14.01,2013-08-29 04:11:00,
2013-08-28 21:15:00,72.7,54.6,29.72,NW,306,13.0,17.0,53,0.00,,---,0.00,VWS V14.01,2013-08-29 04:15:00,
2013-08-28 21:16:00,72.6,54.5,29.72,NW,309,7.0,13.0,53,0.00,,---,0.00,VWS V14.01,2013-08-29 04:16:00,
2013-08-28 21:21:00,72.5,54.9,29.73,WNW,285,1.0,14.0,54,0.00,,---,0.00,VWS V14.01,2013-08-29 04:21:00,
2013-08-28 21:26:00,72.2,55.2,29.73,SW,232,0.0,14.0,55,0.00,,---,0.00,VWS V14.01,2013-08-29 04:26:00,
2013-08-28 21:30:00,71.9,54.9,29.73,SW,217,0.0,14.0,55,0.00,,---,0.00,VWS V14.01,2013-08-29 04:30:00,
2013-08-28 21:31:00,71.9,54.9,29.73,SW,214,0.0,0.0,55,0.00,,---,0.00,VWS V14.01,2013-08-29 04:31:00,
2013-08-28 21:36:00,71.9,54.9,29.73,SSW,210,0.0,0.0,55,0.00,,---,0.00,VWS V14.01,2013-08-29 04:36:00,
2013-08-28 21:41:00,71.9,54.9,29.73,SSW,210,0.0,0.0,55,0.00,,---,0.00,VWS V14.01,2013-08-29 04:41:00,
2013-08-28 21:45:00,71.7,54.7,29.73,SSW,210,0.0,0.0,55,0.00,,---,0.00,VWS V14.01,2013-08-29 04:45:00,
2013-08-28 21:46:00,71.7,54.7,29.73,South,190,0.0,0.0,55,0.00,,---,0.00,VWS V14.01,2013-08-29 04:46:00,
2013-08-28 21:51:00,71.5,54.5,29.74,South,190,0.0,0.0,55,0.00,,---,0.00,VWS V14.01,2013-08-29 04:51:00,
2013-08-28 21:56:00,71.3,54.8,29.74,South,190,0.0,0.0,56,0.00,,---,0.00,VWS V14.01,2013-08-29 04:56:00,
2013-08-28 22:00:00,71.3,54.8,29.74,SSW,210,0.0,0.0,56,0.00,,---,0.00,VWS V14.01,2013-08-29 05:00:00,
2013-08-28 22:01:00,71.4,54.9,29.74,SSW,210,0.0,0.0,56,0.00,,---,0.00,VWS V14.01,2013-08-29 05:01:00,
2013-08-28 22:06:00,71.7,54.7,29.73,SSW,206,0.0,0.0,55,0.00,,---,0.00,VWS V14.01,2013-08-29 05:06:00,
2013-08-28 22:11:00,71.6,54.6,29.74,SSW,206,0.0,0.0,55,0.00,,---,0.00,VWS V14.01,2013-08-29 05:11:00,
2013-08-28 22:15:00,71.7,54.7,29.74,SSW,206,0.0,0.0,55,0.00,,---,0.00,VWS V14.01,2013-08-29 05:15:00,
2013-08-28 22:16:00,71.7,54.7,29.74,SSW,206,0.0,0.0,55,0.00,,---,0.00,VWS V14.01,2013-08-29 05:16:00,
2013-08-28 22:21:00,71.4,54.9,29.74,West,263,3.0,6.0,56,0.00,,---,0.00,VWS V14.01,2013-08-29 05:21:00,
2013-08-28 22:26:00,71.3,54.8,29.74,West,275,4.0,8.0,56,0.00,,---,0.00,VWS V14.01,2013-08-29 05:26:00,
2013-08-28 22:30:00,71.3,54.8,29.74,West,274,5.0,8.0,56,0.00,,---,0.00,VWS V14.01,2013-08-29 05:30:00,
2013-08-28 22:31:00,71.2,55.2,29.74,NW,304,6.0,7.0,57,0.00,,---,0.00,VWS V14.01,2013-08-29 05:31:00,
2013-08-28 22:36:00,71.0,55.0,29.74,WNW,284,6.0,8.0,57,0.00,,---,0.00,VWS V14.01,2013-08-29 05:36:00,
2013-08-28 22:41:00,70.7,54.7,29.74,WNW,290,6.0,10.0,57,0.00,,---,0.00,VWS V14.01,2013-08-29 05:41:00,
2013-08-28 22:45:00,70.3,54.4,29.74,WNW,288,5.0,10.0,57,0.00,,---,0.00,VWS V14.01,2013-08-29 05:45:00,
2013-08-28 22:46:00,70.1,54.7,29.74,WNW,290,3.0,5.0,58,0.00,,---,0.00,VWS V14.01,2013-08-29 05:46:00,
2013-08-28 22:51:00,69.9,54.5,29.74,WNW,302,4.0,8.0,58,0.00,,---,0.00,VWS V14.01,2013-08-29 05:51:00,
2013-08-28 22:56:00,69.8,54.4,29.74,WNW,298,3.0,8.0,58,0.00,,---,0.00,VWS V14.01,2013-08-29 05:56:00,
2013-08-28 23:00:00,69.7,54.3,29.74,NW,305,6.0,8.0,58,0.00,,---,0.00,VWS V14.01,2013-08-29 06:00:00,
2013-08-28 23:01:00,69.6,54.2,29.74,WNW,298,4.0,9.0,58,0.00,,---,0.00,VWS V14.01,2013-08-29 06:01:00,
2013-08-28 23:06:00,69.7,54.3,29.74,NW,311,6.0,11.0,58,0.00,,---,0.00,VWS V14.01,2013-08-29 06:06:00,
2013-08-28 23:11:00,69.7,54.3,29.74,West,273,6.0,11.0,58,0.00,,---,0.00,VWS V14.01,2013-08-29 06:11:00,
2013-08-28 23:15:00,69.5,54.1,29.74,WNW,294,8.0,11.0,58,0.00,,---,0.00,VWS V14.01,2013-08-29 06:15:00,
2013-08-28 23:16:00,69.5,54.1,29.74,WNW,295,3.0,10.0,58,0.00,,---,0.00,VWS V14.01,2013-08-29 06:16:00,
2013-08-28 23:21:00,69.1,54.2,29.74,WNW,300,5.0,10.0,59,0.00,,---,0.00,VWS V14.01,2013-08-29 06:21:00,
2013-08-28 23:26:00,68.8,53.9,29.74,WNW,302,5.0,10.0,59,0.00,,---,0.00,VWS V14.01,2013-08-29 06:26:00,
2013-08-28 23:30:00,71.3,54.8,29.74,West,274,5.0,8.0,56,0.00,,---,0.00,VWS V14.01,2013-08-29 06:30:00,
2013-08-28 23:31:00,68.7,53.8,29.74,WNW,288,0.0,0.0,59,0.00,,---,0.00,VWS V14.01,2013-08-29 06:31:00,
2013-08-28 23:36:00,68.4,54.0,29.74,NW,305,3.0,7.0,60,0.00,,---,0.00,VWS V14.01,2013-08-29 06:36:00,
2013-08-28 23:41:00,68.2,53.8,29.74,WNW,285,0.0,7.0,60,0.00,,---,0.00,VWS V14.01,2013-08-29 06:41:00,
2013-08-28 23:45:00,68.3,53.9,29.74,WNW,299,0.0,7.0,60,0.00,,---,0.00,VWS V14.01,2013-08-29 06:45:00,
2013-08-28 23:46:00,68.2,54.2,29.75,WNW,300,0.0,0.0,61,0.00,,---,0.00,VWS V14.01,2013-08-29 06:46:00,
2013-08-28 23:51:00,67.7,53.8,29.74,West,272,0.0,0.0,61,0.00,,---,0.00,VWS V14.01,2013-08-29 06:51:00,
2013-08-28 23:56:00,67.6,53.7,29.74,West,273,0.0,0.0,61,0.00,,---,0.00,VWS V14.01,2013-08-29 06:56:00,